Location: Newark
(33.6439°N, 114.9881°W)
Time: 03:14:35
(UTC+00:00)

Tiros 1 - Pass Details

Date: 23 July 2019
Orbit: 631 x 664 km, 48.4° (Epoch: 24 August)

Event Time Altitude Azimuth Distance (km) Brightness Sun altitude
Rises 00:36:27 0° 313° (NW) 2,994 11.4 25.2°
Reaches altitude 10° 00:38:59 10° 323° (NW) 2,078 10.6 24.7°
Maximum altitude 00:43:24 35° 29° (NNE) 1,054 8.3 23.8°
Drops below altitude 10° 00:47:46 10° 96° (E) 2,058 9.2 22.9°
Sets 00:50:15 0° 105° (ESE) 2,961 10.0 22.4°
